Weather History for Bradford, PA

Change the Weather History Date:

Friday, July 25, 2014

  Actual Average Record
Temperature  
Mean Temperature 57 °F 65 °F  
Max Temperature 74 °F 77 °F 85 °F (1966)
Min Temperature 39 °F 54 °F 39 °F (2013)
Degree Days  
Heating Degree Days 8 0  
Month to date heating degree days 65 1  
Since 1 June heating degree days 150 146  
Since 1 July heating degree days 65 1  
Cooling Degree Days 0 2  
Month to date cooling degree days 57 58  
Year to date cooling degree days 131 108  
Since 1 June cooling degree days 113 98  
Growing Degree Days 6 (Base 50)    
Moisture  
Dew Point 45 °F    
Average Humidity 65    
Maximum Humidity 96    
Minimum Humidity 33    
Precipitation  
Precipitation 0.00 in 0.13 in 0.88 in (1977)
Month to date precipitation 2.80 3.38  
Year to date precipitation 24.79 25.03  
Sea Level Pressure  
Sea Level Pressure 30.06 in    
Wind  
Wind Speed 3 mph (West)    
Max Wind Speed 13 mph    
Max Gust Speed 16 mph    
Visibility 10 miles    
Events      
T = Trace of Precipitation, MM = Missing Value Source: NWS Daily Summary

Daily Weather History Graph

Daily Weather History Graph

Search for Another Location

Airport:

Trip Planner

Search our weather history database for the weather conditions in past years. The results will help you decide how hot, cold, wet, or windy it might be!

Date:

Astronomy

Jul. 25, 2014 Rise Set
Actual Time 6:01 AM EDT 8:39 PM EDT
Civil Twilight 5:29 AM EDT 9:11 PM EDT
Nautical Twilight 4:49 AM EDT 9:52 PM EDT
Astronomical Twilight 4:03 AM EDT 10:37 PM EDT
Moon 5:00 AM EDT (7/25) 7:34 PM EDT (7/25)
Length of Visible Light 15h 42m
Length of Day
14h 38m
Waning Crescent, 1% of the Moon is Illuminated
Jul 25
Waning Crescent
Jul 26
New
Aug 3
First Quarter
Aug 10
Full
Aug 17
Last Quarter

Hourly Weather History & Observations

Time (EDT) Temp. Dew Point Humidity Pressure Visibility Wind Dir Wind Speed Gust Speed Precip Events Conditions
12:53 AM 46.9 °F 45.0 °F 93% 30.08 in 10.0 mi Calm Calm - N/A   Clear
1:53 AM 45.0 °F 42.1 °F 90% 30.07 in 10.0 mi Calm Calm - N/A   Clear
2:53 AM 43.0 °F 41.0 °F 93% 30.06 in 10.0 mi Calm Calm - N/A   Clear
3:53 AM 44.1 °F 39.9 °F 85% 30.06 in 10.0 mi Calm Calm - N/A   Clear
4:53 AM 42.1 °F 39.9 °F 92% 30.07 in 10.0 mi Calm Calm - N/A   Clear
5:53 AM 39.9 °F 37.0 °F 89% 30.07 in 10.0 mi Calm Calm - N/A   Clear
6:53 AM 42.1 °F 39.0 °F 89% 30.10 in 10.0 mi Calm Calm - N/A   Clear
7:53 AM 51.1 °F 46.9 °F 86% 30.12 in 10.0 mi Calm Calm - N/A   Clear
8:53 AM 60.1 °F 48.0 °F 64% 30.13 in 10.0 mi Variable 3.5 mph - N/A   Clear
9:53 AM 62.1 °F 46.0 °F 56% 30.11 in 10.0 mi Calm Calm - N/A   Clear
10:53 AM 64.9 °F 46.9 °F 52% 30.11 in 10.0 mi Variable 5.8 mph - N/A   Clear
11:53 AM 66.0 °F 42.1 °F 42% 30.11 in 10.0 mi SSW 5.8 mph - N/A   Clear
1:53 PM 71.1 °F 46.0 °F 41% 30.05 in 10.0 mi NW 6.9 mph - N/A   Clear
2:53 PM 73.0 °F 46.0 °F 38% 30.05 in 10.0 mi Variable 4.6 mph - N/A   Clear
3:53 PM 73.9 °F 46.9 °F 38% 30.03 in 10.0 mi Variable 5.8 mph - N/A   Clear
4:53 PM 73.9 °F 45.0 °F 35% 30.02 in 10.0 mi West 10.4 mph - N/A   Clear
5:53 PM 73.0 °F 42.1 °F 33% 30.03 in 10.0 mi Variable 5.8 mph - N/A   Clear
6:53 PM 70.0 °F 42.1 °F 36% 30.03 in 10.0 mi Variable 3.5 mph - N/A   Clear
7:53 PM 69.1 °F 45.0 °F 42% 30.02 in 10.0 mi Variable 3.5 mph - N/A   Clear
8:53 PM 60.1 °F 51.1 °F 72% 30.01 in 10.0 mi Calm Calm - N/A   Clear
9:53 PM 57.9 °F 50.0 °F 75% 30.03 in 10.0 mi Calm Calm - N/A   Clear
10:53 PM 55.0 °F 50.0 °F 83% 30.03 in 10.0 mi Calm Calm - N/A   Clear
11:53 PM 53.1 °F 48.9 °F 86% 30.02 in 10.0 mi Calm Calm - N/A   Clear